Погода в Гданьске

Польша     54°20′59″N   18°39′07″E
темп.,
°C
ветер,
м/с
пор.,
м/с
влажн.,
%
обл.,
%
осадки,
мм/ч
давл.,
гПа
погр.,
м
1 марта, пн
пн101:00+2зсз35910 0.0 103393
04:00+2з22890 0.0 103222
07:00+2зюз22893 0.0 103322
10:00+7зюз24760 0.0 1033264
13:00+10зюз46620 0.0 1033459
16:00+10зюз48660 0.0 1031415
19:00+6з411800 0.0 1031278
22:00+4з512740 0.0 1031282
2 марта, вт
вт201:00+4з411830 0.0 1031299
04:00+4з513820 0.0 1029363
07:00+3зсз512880 0.0 1030366
10:00+7зсз6117622 0.0 1030483
13:00+9ссз587011 0.0 1031578
16:00+7с46770 0.0 1031468
19:00+4с34920 0.0 103292
22:00+3св229018 0.0 103322
3 марта, ср
ср301:00+2ююв118655 0.0 103322
04:00+1ююз228399 0.0 103222
07:00+1ююз338383 0.0 103157
10:00+5ююз46645 0.0 1030358
13:00+9ююз46685 0.0 1027565
16:00+9юз367243 0.0 1024282
19:00+4юз348421 0.0 102261
22:00+3юз37840 0.0 1019126
4 марта, чт
чт401:00+3зюз36900 0.0 1016107
04:00+2з48920 0.0 1014199
07:00+1з37937 0.0 1013198
10:00+5зсз468055 0.0 1013683
13:00+4ссз358377 0.1 1013504
16:00+1св5888100 0.1 1013520
19:00+1ссв4779100 0.1 1013657
22:00+1св4874100 0.0 1014444
5 марта, пт
пт501:000св3775100 0.0 1013292
04:00−1св3876100 0.0 1014244
07:00−1св257466 0.0 1015179
10:00+2с565557 0.1 10161347
13:00+1ссв895861 0.5 10171352
16:00+1с575721 0.1 10191359
19:00−1ссз5106351 0.3 1021497
22:00−1ссз596398 0.4 1023364